Simultaneous Nadir Overpasses (SNOs) Predictions

Prediction of SNOs between GOES-15 and METOP-C Satellite Orbit:

Table of predicted SNOs for the next 14.0 days since TLE Epoch: 3/14/2021
Index Date Time (GOES-15) GOES-15 Lat,Lon METOP-C Lat,Lon Distance(km) Time Diff (sec)
1 03/14/2021 05:47:33 -0.15,-128.35 0.73,-124.34 456.98 80
2 03/15/2021 18:06:26 0.15,-128.45 0.24,-128.91 52.47 80
3 03/18/2021 06:07:26 -0.15,-128.37 -0.15,-128.51 15.54 80
4 03/20/2021 18:05:39 0.15,-128.46 0.07,-128.08 42.98 80
5 03/22/2021 06:24:38 -0.14,-128.37 -1.09,-132.67 490.14 80
6 03/23/2021 06:01:19 -0.14,-128.36 0.02,-127.67 78.17 80
7 03/24/2021 18:20:11 0.14,-128.43 1.01,-132.24 434.01 80
8 03/25/2021 18:02:12 0.14,-128.43 -0.11,-127.24 134.38 80
9 03/27/2021 06:21:11 -0.14,-128.33 -0.91,-131.84 399.30 80
